Location: Unspecified
(0.0000°N, 0.0000°E)
Time: 04:09:35
(UTC+00:00)

X-37B - Visible Passes

Search period start: 27 May 2017 00:00
Search period end: 06 June 2017 00:00
Orbit: 259 x 286 km, 43.2° (Epoch: 06 October)

Date Brightness Start Highest point End Pass type
(mag) Time Alt. Az. Time Alt. Az. Time Alt. Az.
30 May 3.7 19:18:13 10° SW 19:18:55 17° WSW 19:18:55 17° WSW visible
31 May 3.9 19:08:14 10° W 19:09:58 21° NW 19:11:41 10° N visible
01 Jun 5.0 18:59:12 10° WNW 18:59:37 10° NW 19:00:03 10° NW visible
04 Jun 5.2 04:13:45 10° NE 04:13:45 10° NE 04:13:53 10° ENE visible
